Location: Unspecified
(0.0000°N, 0.0000°E)
Time: 14:46:08
(UTC+00:00)

COSMOS-2408 - Pass Details

Date: 07 March 2024
Orbit: 1470 x 1495 km, 82.5° (Epoch: 23 April)

Event Time Altitude Azimuth Distance (km) Brightness Sun altitude
Rises 20:58:53 0° 179° (S) 4,589 10.1 -41.8°
Reaches altitude 10° 21:01:46 10° 177° (S) 3,610 9.4 -42.6°
Enters shadow 21:01:56 11° 177° (S) 3,555 9.4 -42.6°
